Location: Dojet?ice
(49.8678°N, 14.8727°E)
Time: 05:10:13
(UTC+00:00)

Daily predictions for brighter satellites

Satellite Brightness Start Highest point End
(mag) Time Altitude Azimuth Time Altitude Azimuth Time Altitude Azimuth
ADEOS II 4.3 00:01:00 10° NE 00:04:12 16° E 00:06:31 13° ESE
Geosat 3.9 00:06:04 74° W 00:06:04 74° W 00:10:56 10° NNW
Cosmos 1538 Rocket 3.9 00:06:03 72° SE 00:06:19 74° ESE 00:11:38 10° NNE
Nadezhda 4 Rocket 4.5 00:06:15 40° SE 00:07:55 51° E 00:13:48 10° NNE
Cosmos 1943 Rocket 2.5 00:02:25 10° NNW 00:08:05 65° ENE 00:10:24 36° SE
SL-16 R/B 4.4 00:06:34 10° WNW 00:10:28 19° NW 00:14:23 10° N
ATLAS 5 CENTAUR R/B 2.8 00:07:41 10° NW 00:12:13 49° NE 00:17:50 10° ESE
RESURS DK-1 2.8 00:13:30 59° NNE 00:13:30 59° NNE 00:16:52 10° NNE
Cosmos 972 Rocket 4.1 00:12:33 57° W 00:12:52 59° WNW 00:17:46 10° NNE
Meteor 1-14 Rocket 4.1 00:08:24 10° NNW 00:13:57 70° W 00:14:22 67° SW
SL-16 R/B 4.1 00:13:06 15° ESE 00:14:59 18° E 00:18:38 10° ENE
Okean 3 Rocket 3.8 00:11:31 10° NNW 00:15:30 63° NW 00:15:30 63° NW
Cosmos 1408 Rocket 3.6 00:13:46 10° N 00:17:59 72° ENE 00:17:59 72° ENE
NOSS 2-2 (D) 4.5 00:15:22 10° NW 00:18:12 41° WNW 00:18:12 41° WNW
MOZ.5/SAFIR/RUBIN 5/SL-8 3.7 00:20:51 79° SE 00:21:07 84° ENE 00:25:53 10° NNW
CZ-2C R/B 3.7 00:18:46 20° SE 00:22:03 41° ENE 00:26:59 10° N
IRIDIUM 106 4.2 00:17:05 10° N 00:22:20 88° E 00:22:58 70° S
SL-16 R/B 4.0 00:17:12 10° ESE 00:22:41 34° ENE 00:28:12 10° N
Sich 1 3.5 00:20:10 10° N 00:24:19 51° ENE 00:24:45 49° E
GEOS 3 Rocket 4.4 00:20:40 10° ESE 00:25:50 52° NE 00:30:58 10° NW
Cosmos 1842 Rocket 3.6 00:27:32 73° NW 00:27:32 73° NW 00:31:50 10° N
NPP 4.3 00:24:00 10° NNE 00:29:12 46° E 00:30:40 37° SE
Okean 1 3.9 00:30:28 47° ENE 00:30:28 47° ENE 00:33:49 10° NNE
Cosmos 2344 4.0 00:21:50 10° NW 00:30:09 72° SW 00:41:40 10° SSE
Cosmos 192 4.4 00:26:17 10° NNW 00:30:51 62° W 00:30:51 62° W
USA 215 3.5 00:26:12 10° ENE 00:32:35 54° SE 00:34:08 45° S
Cosmos 1536 3.2 00:32:16 10° NNW 00:35:23 56° NNW 00:35:23 56° NNW
Meteor 1-10 Rocket 4.3 00:35:14 54° S 00:36:43 85° E 00:42:39 10° NNE
NOSS 3-1 (C) 4.1 00:31:55 10° NW 00:38:57 75° NE 00:47:38 10° SE
Cosmos 1500 Rocket 3.4 00:34:34 10° N 00:39:03 88° E 00:39:12 83° SSE
Cosmos 1733 3.8 00:36:11 10° N 00:39:33 49° ENE 00:39:33 49° ENE
Cosmos 1805 Rocket 3.5 00:36:23 10° N 00:40:44 76° E 00:41:03 71° ESE
Lacrosse 5 3.2 00:35:59 10° WNW 00:40:45 37° N 00:45:31 10° ENE
Meteor 1-11 Rocket 3.5 00:35:48 10° NNW 00:41:22 80° W 00:42:35 56° S
Cosmos 923 Rocket 4.1 00:40:34 54° SSE 00:41:33 66° ESE 00:46:49 10° NNE
H-2A R/B 3.5 00:37:31 10° NNE 00:41:35 64° ESE 00:41:39 64° ESE
ATLAS 3B R/B 3.7 00:38:12 10° NW 00:45:50 54° NE 00:53:29 10° ESE
NOSS 0 Rocket 3.9 00:45:55 48° SW 00:47:42 75° WNW 00:53:54 10° NNE
MSX 4.1 00:47:33 10° NNE 00:53:19 63° ESE 00:55:32 37° SSE
Cosmos 2026 Rocket 4.3 00:53:06 31° SSE 00:56:12 63° E 01:02:30 10° NNE
Cosmos 1371 Rocket 4.0 00:51:40 10° NNW 00:56:57 83° ENE 00:59:42 29° SSE
Gbstr 26 Del rocket 3.2 00:57:32 36° WNW 00:59:10 67° N 01:03:06 10° E
Meteor 2-17 Rocket 4.4 00:57:56 44° SSW 00:59:59 81° W 01:06:07 10° N
Cosmos 1092 Rocket 4.2 00:58:01 32° SSE 01:00:55 67° E 01:07:03 10° NNE
Cosmos 2369 Rocket 3.4 00:55:40 10° NNW 01:00:59 41° NE 01:06:14 10° ESE
Cosmos 2237 Rocket 2.2 00:59:39 48° SW 01:01:17 77° WNW 01:07:01 10° NNE
IDEFIX/ARIANE 42P 2.5 00:57:06 10° NNE 01:02:20 84° ESE 01:03:55 47° S
Cosmos 1980 3.7 01:02:35 45° SW 01:04:17 70° WNW 01:09:57 10° NNE
CZ-2C R/B 3.8 01:02:52 10° NNE 01:08:03 51° E 01:10:56 26° SSE
CZ-2D R/B 2.2 01:02:49 10° NNE 01:08:14 74° ESE 01:10:23 38° S
USA 267 3.1 01:01:58 10° SE 01:08:29 80° SSW 01:15:03 10° WNW
Cosmos 2297 4.3 01:03:54 10° NNW 01:09:37 59° ENE 01:15:17 10° SE
Cosmos 1626 4.1 01:09:30 16° ESE 01:10:45 20° E 01:13:13 10° NE
Cosmos 1151 Rocket 3.0 01:10:36 54° S 01:11:32 80° E 01:15:55 10° NNE
Cosmos 921 Rocket 3.5 01:11:48 40° SSE 01:12:58 53° ESE 01:17:16 10° NNE
Cosmos 1975 3.2 01:09:51 10° N 01:13:41 57° ENE 01:15:11 33° SE
USA 308 2.3 01:14:03 85° S 01:14:06 85° SSE 01:18:02 10° ENE
Cosmos 1633 Rocket 3.8 01:10:50 10° N 01:15:06 51° ENE 01:18:04 19° SSE
Meteor 2-9 Rocket 4.3 01:10:38 10° NNW 01:15:58 57° W 01:17:36 41° SSW
COSMOS 2428 3.9 01:13:36 22° W 01:16:10 32° NW 01:21:15 10° NNE
Cosmos 1743 Rocket 3.7 01:12:53 10° NNW 01:17:04 50° W 01:17:16 49° WSW
Cosmos 1726 4.2 01:17:16 10° NW 01:17:55 13° NW 01:17:55 13° NW
Resurs 1-4 Rocket 2.0 01:14:53 10° NNE 01:20:13 86° WNW 01:22:17 39° SSW
Cosmos 2112 Rocket 4.0 01:19:51 40° SSW 01:21:50 88° ESE 01:27:13 10° NNE
Meteor 2-4 Rocket 4.0 01:22:13 25° S 01:25:27 62° E 01:31:03 10° NNE
BREEZE-M DEB (TANK) 1.9 01:27:27 56° E 01:27:27 56° E 01:29:05 10° ENE
Cosmos 2219 Rocket 4.3 01:23:24 10° WNW 01:27:08 18° NW 01:30:53 10° N
FENGYUN 3A 3.9 01:24:16 10° NNE 01:29:42 68° ESE 01:32:49 26° S
Meteor 1-19 Rocket 4.5 01:28:26 34° SW 01:31:01 63° WNW 01:37:03 10° N
Cosmos 2278 Rocket 3.6 01:29:06 10° NW 01:32:30 20° W 01:32:30 20° W
Geosat FO 4.2 01:32:15 10° NNE 01:35:34 74° WNW 01:35:56 63° WSW
UNK 4.1 01:32:08 10° SSE 01:36:41 66° ENE 01:41:17 10° N
IRAS Rocket 4.4 01:33:37 10° NNE 01:39:15 73° ESE 01:42:49 23° S
USA 290 2.1 01:36:54 10° NNW 01:40:09 67° WSW 01:40:17 65° SW
COBE Rocket 4.0 01:37:01 10° N 01:41:33 55° WNW 01:43:15 35° SW
ADEOS II 2.0 01:39:14 10° NNE 01:44:30 83° WNW 01:47:24 28° SSW
Cosmos 1680 Rocket 3.8 01:42:34 31° SW 01:44:53 55° WNW 01:50:07 10° NNE
Meteor 1-28 Rocket 3.2 01:49:06 42° SSW 01:49:56 53° W 01:53:32 10° NNW
Cosmos 1943 Rocket 3.2 01:46:51 10° NW 01:51:22 25° WSW 01:51:50 24° WSW
ATLAS 2AS CENTAUR R/B 2.8 01:49:36 25° SW 01:54:16 84° NW 02:01:25 10° NE
Cosmos 1110 Rocket 4.2 01:49:21 10° NNW 01:54:39 76° ENE 01:59:57 10° SSE
ATLAS 5 CENTAUR R/B 2.5 01:51:32 10° NW 01:56:12 39° WSW 02:01:53 10° S
Cosmos 2056 Rocket 4.2 01:51:32 10° NW 01:56:26 36° WSW 01:58:37 26° SW
S3M 4.4 01:50:17 10° N 01:56:27 65° ENE 02:02:40 10° SSE
SL-16 R/B 2.2 01:54:58 26° SSW 01:58:20 85° WNW 02:04:03 10° NNE
CZ-2C R/B 3.3 02:00:15 25° SW 02:02:22 34° W 02:07:12 10° NNW
GP-B 3.9 01:58:27 10° NNW 02:02:26 34° W 02:03:57 26° WSW
Cosmos 1340 Rocket 3.3 02:01:32 31° WSW 02:02:52 43° WNW 02:06:39 10° N
Cosmos 1452 Rocket 3.5 01:57:43 10° NNW 02:03:01 90° ENE 02:08:15 10° SSE
GEOS 3 Rocket 4.0 01:58:52 10° SSE 02:03:55 42° WSW 02:08:57 10° NW
SL-16 R/B 2.7 02:00:25 12° S 02:06:02 54° W 02:12:10 10° NNW
ALOS 2.2 02:02:17 10° NNE 02:06:57 88° WNW 02:10:17 19° SSW
Cosmos 1515 Rocket 4.0 02:03:19 13° S 02:07:13 63° E 02:11:37 10° NNE
Meteor 1-18 Rocket 4.2 02:03:10 20° SSW 02:07:19 77° WNW 02:13:10 10° N
Envisat 3.8 02:04:51 10° NNE 02:09:48 49° E 02:14:42 10° S
Cosmos 1470 Rocket 3.5 02:06:08 10° NNW 02:10:34 72° W 02:14:59 10° S
Cosmos 1340 3.4 02:07:42 10° NNW 02:10:40 28° W 02:10:59 27° WSW
NOSS 3-1 (A) 4.0 02:04:50 10° NW 02:12:04 71° SW 02:20:49 10° SSE
Cosmos 1805 4.3 02:09:46 10° NW 02:12:50 25° W 02:13:21 24° WSW
SOZ 4.5 02:12:38 33° WSW 02:13:37 87° SSE 02:16:46 10° ENE
USA 215 3.5 02:09:15 10° ENE 02:15:46 69° NNW 02:21:28 14° WSW
Intercosmos 25 Rocket 4.2 02:16:06 10° NNW 02:19:56 46° W 02:25:43 10° SSW
Cosmos 1331 Rocket 3.9 02:14:39 10° NNW 02:19:58 76° WSW 02:25:14 10° SSE
USA 229 DEB 4.3 02:14:31 10° NW 02:21:50 72° NE 02:29:50 10° SE
USA 229 4.3 02:14:37 10° NW 02:21:55 72° NE 02:29:53 10° SE
Cosmos 1666 Rocket 4.5 02:19:09 10° NNW 02:23:01 29° W 02:25:08 20° SW
Cosmos 1553 Rocket 4.2 02:18:02 10° NNW 02:23:59 48° W 02:29:49 10° SSW
Lacrosse 5 2.9 02:19:36 10° NW 02:24:34 48° NNE 02:29:32 10° E
METEOR-M 4.4 02:19:17 10° NNE 02:24:37 68° ESE 02:29:56 10° S
Cosmos 1674 2.5 02:28:15 11° S 02:31:31 78° E 02:34:58 10° NNE
NOAA 11 4.5 02:30:12 10° NNE 02:35:40 70° ESE 02:41:08 10° S
DMSP B5D2-2 4.4 02:31:35 10° SSE 02:36:44 72° ENE 02:41:56 10° N
ATLAS 3B R/B 3.1 02:29:12 10° NW 02:36:48 56° WSW 02:44:18 10° SSE
Cosmos 1908 3.6 02:33:14 10° N 02:36:52 61° ENE 02:40:25 10° SSE
Cosmos 1933 Rocket 3.5 02:33:04 10° NNW 02:37:24 72° W 02:41:42 10° S
Cosmos 1655 Rocket 4.2 02:33:11 10° S 02:39:22 76° E 02:45:39 10° NNE
Cosmos 1656 Rocket 4.2 02:35:40 10° NW 02:40:30 34° WSW 02:45:19 10° S
IDEFIX/ARIANE 42P 4.3 02:37:45 10° NNW 02:41:14 18° NW 02:44:41 10° W
Cosmos 1470 2.6 02:37:48 10° NNW 02:41:36 75° W 02:45:23 10° S
Cosmos 2315 Rocket 4.0 02:35:56 10° N 02:42:11 89° W 02:48:23 10° S
Cosmos 1626 3.0 02:42:31 17° WSW 02:44:19 26° WNW 02:47:11 10° NNW
Cosmos 2369 Rocket 2.6 02:39:48 10° NW 02:45:00 40° WSW 02:50:10 10° S
Gbstr 26 Del rocket 2.6 02:41:40 10° WNW 02:45:50 79° SSW 02:49:35 10° ESE
Cosmos 1066 Rocket 4.3 02:40:39 11° SSW 02:45:51 57° WNW 02:51:24 10° N
Cosmos 2237 Rocket 4.0 02:42:10 10° W 02:46:19 20° NW 02:50:30 10° N
USA 308 3.5 02:42:42 10° W 02:46:23 46° N 02:50:11 10° ENE
ISS -1.6 02:44:32 10° S 02:46:56 19° SE 02:49:20 10° E
CZ-2C R/B 4.2 02:43:08 10° N 02:47:39 30° WNW 02:51:58 12° WSW
CZ-2D R/B 3.7 02:43:43 10° N 02:47:44 22° WNW 02:51:41 10° WSW
KORONAS-FOTON 3.6 02:48:07 10° SSW 02:51:45 73° W 02:55:24 10° N
USA 267 4.0 02:46:44 10° S 02:52:10 28° SW 02:57:38 10° WNW
Resurs 1-4 Rocket 3.9 02:55:59 10° NNW 02:59:15 17° NW 03:02:32 10° W
Cosmos 44 3.2 02:55:04 10° NW 03:00:07 85° SW 03:04:48 10° SE
Cosmos 1943 3.3 03:04:37 10° SW 03:10:19 75° WNW 03:16:03 10° NNE
Thor Agena Rocket 3.5 03:09:04 10° NNE 03:14:06 72° WNW 03:19:08 10° SSW
Cosmos 1707 Rocket 4.5 03:11:33 10° S 03:15:44 52° E 03:19:58 10° NNE
CZ-2C R/B 2.7 03:14:48 10° N 03:19:53 58° WNW 03:24:52 10° SSW
H-2A R/B 2.9 03:16:36 10° NNE 03:21:36 55° E 03:26:42 10° S
